Location: Brachstadt
(48.6975°N, 10.6755°E)
Time: 02:07:42
(UTC+00:00)

Cosmos 1092 Rocket - Pass Details

Date: 18 September 2020
Orbit: 954 x 995 km, 82.9° (Epoch: 24 October)

Event Time Altitude Azimuth Distance (km) Brightness Sun altitude
Rises 19:48:38 0° 349° (NNW) 3,646 7.6 -23.6°
Reaches altitude 10° 19:51:09 10° 347° (NNW) 2,697 6.9 -23.9°
Maximum altitude 19:57:16 72° 265° (W) 1,008 4.1 -24.7°
Enters shadow 20:00:16 32° 188° (S) 1,587 4.8 -25.1°
